Flag for Seychelles Weather past 2 weeks in Victoria, Seychelles

Now
79 °F

Passing clouds.


Feels Like: 82 °F
Forecast: 74 / 82 °F
Wind: 3 mph from West

Location: National Airport

Current Time: Sep 30, 2014 at 10:26:33 PM

Latest Report: Sep 30, 2014 at 9:00 PM


Visibility: N/A

Pressure: 29.86 "Hg

Humidity: 89%

Dew point: 75 °F

Location of VictoriaLocation

Historic Weather in Victoria — Graph

°F

Victoria temperature yesterday

Maximum temperature yesterday: 86 °F (at 10:00 AM)
Minimum temperature yesterday: 79 °F (at 12:00 AM)
Average temperature yesterday: 82 °F

Past Weeks' High & Low Weather Summary

 TemperatureHumidityPressure
High86 °F (Sep 16, 12:00 PM)100% (Sep 17, 11:00 PM)29.98 "Hg (Sep 17, 11:00 PM)
Low75 °F (Sep 17, 11:00 PM)59% (Sep 29, 10:00 AM)29.77 "Hg (Sep 30, 3:00 PM)
Average81 °F77%29.88 "Hg
* Reported Sep 15 9:00 PM — Sep 30 9:00 PM, Victoria, Weather by CustomWeather, © 2014

Note: Actual official high and low records may vary slightly from our data, if they occured in-between our weather recording intervals... More about our weather records

Advertising

Victoria weather history for previous 24 hours

 ConditionsComfort  
Time TempWeatherWind HumidityBarometerVisibility
9:00 PM
Sep 30
79 °FPassing clouds.3 mph89%29.86 "HgN/A
8:00 PM81 °FPassing clouds.No wind84%29.83 "HgN/A
7:00 PM81 °FPassing clouds.7 mph79%29.83 "HgN/A
6:00 PM82 °FScattered clouds.8 mph79%29.80 "HgN/A
5:00 PM82 °FScattered clouds.9 mph79%29.80 "HgN/A
4:00 PM84 °FScattered clouds.7 mph70%29.77 "HgN/A
3:00 PM84 °FScattered clouds.10 mph70%29.77 "HgN/A
2:00 PM84 °FScattered clouds.12 mph70%29.80 "HgN/A
1:00 PM84 °FPartly sunny.12 mph70%29.80 "HgN/A
12:00 PM84 °FPartly sunny.10 mph70%29.83 "HgN/A
11:00 AM86 °FPartly sunny.16 mph70%29.86 "HgN/A
10:00 AM84 °FPartly sunny.10 mph74%29.89 "HgN/A
9:00 AM86 °FScattered clouds.9 mph66%29.89 "HgN/A
8:00 AM84 °FScattered clouds.7 mph70%29.86 "HgN/A
7:00 AM79 °FSprinkles. Scattered clouds.6 mph89%29.86 "HgN/A
6:00 AM79 °FPassing clouds.2 mph84%29.83 "HgN/A
5:00 AM79 °FPassing clouds.No wind84%29.83 "HgN/A
4:00 AM79 °FPassing clouds.No wind84%29.83 "HgN/A
3:00 AM79 °FPassing clouds.No wind89%29.80 "HgN/A
2:00 AM79 °FPassing clouds.2 mph89%29.83 "HgN/A
1:00 AM79 °FPassing clouds.No wind89%29.86 "HgN/A
12:00 AM79 °FPassing clouds.No wind89%29.86 "HgN/A
11:00 PM
Sep 29
81 °FPassing clouds.No wind84%29.89 "HgN/A
10:00 PM81 °FPassing clouds.No wind84%29.89 "HgN/A
Weather by CustomWeather, © 2014

See weather overviewHow to use our weather pages